Flag for Russia Weather past 2 weeks in Chelyabinsk, Russia

Now
84 °F

Scattered clouds.


Feels Like: 84 °F
Forecast: 64 / 76 °F
Wind: 10 mph from South

Location: Chelyabinsk-Balandino

Current Time: Aug 21, 2014 at 1:04:33 PM

Latest Report: Aug 21, 2014 at 12:30 PM


Visibility: N/A

Pressure: 29.89 "Hg

Humidity: 43%

Dew point: 59 °F

Location of ChelyabinskLocation

Historic Weather in Chelyabinsk — Graph

°F

Chelyabinsk temperature yesterday

Maximum temperature yesterday: 82 °F (at 6:30 PM)
Minimum temperature yesterday: 61 °F (at 4:30 AM)
Average temperature yesterday: 70 °F

Past Weeks' High & Low Weather Summary

 TemperatureHumidityPressure
High88 °F (Aug 17, 4:30 PM)100% (Aug 8, 5:00 AM)30.18 "Hg (Aug 8, 5:00 AM)
Low45 °F (Aug 15, 4:30 AM)33% (Aug 14, 5:00 PM)27.00 "Hg (Aug 7, 12:00 AM)
Average68 °F72%29.87 "Hg
* Reported Aug 6 12:00 Noon — Aug 21 12:00 Noon, Chelyabinsk, Weather by CustomWeather, © 2014

Note: Actual official high and low records may vary slightly from our data, if they occured in-between our weather recording intervals... More about our weather records

Advertising

Chelyabinsk weather history for previous 24 hours

 ConditionsComfort  
Time TempWeatherWind HumidityBarometerVisibility
12:00 PM
Aug 21
81 °FScattered clouds.10 mph48%29.89 "HgN/A
11:30 AM79 °FBroken clouds.6 mph58%29.89 "HgN/A
11:00 AM75 °FBroken clouds.10 mph61%29.89 "HgN/A
10:30 AM75 °FBroken clouds.8 mph57%29.92 "HgN/A
10:00 AM73 °FMore clouds than sun.8 mph65%29.92 "HgN/A
9:30 AM73 °FMore clouds than sun.6 mph65%29.92 "HgN/A
9:00 AM72 °FMore clouds than sun.3 mph73%29.92 "HgN/A
8:30 AM70 °FMore clouds than sun.3 mph73%29.92 "HgN/A
8:00 AM72 °FMore clouds than sun.1 mph69%29.92 "HgN/A
7:30 AM72 °FMore clouds than sun.1 mph65%29.95 "HgN/A
7:00 AM70 °FMore clouds than sun.3 mph69%29.92 "HgN/A
6:30 AM73 °FMostly cloudy.6 mph57%29.95 "HgN/A
5:30 AM73 °FSprinkles. Mostly cloudy.8 mph61%29.95 "HgN/A
5:00 AM73 °FMostly cloudy.8 mph65%29.95 "HgN/A
4:30 AM73 °FMostly cloudy.6 mph65%29.95 "HgN/A
4:00 AM75 °FMostly cloudy.6 mph57%29.95 "HgN/A
3:30 AM77 °FSprinkles. Mostly cloudy.13 mph54%29.98 "HgN/A
2:30 AM81 °FOvercast.10 mph39%29.95 "HgN/A
2:00 AM81 °FPassing clouds.17 mph39%29.95 "HgN/A
1:30 AM73 °FPassing clouds.6 mph78%29.95 "Hg3 mi
1:00 AM73 °FPassing clouds.10 mph78%29.95 "Hg3 mi
12:30 AM72 °FPassing clouds.8 mph83%29.95 "Hg3 mi
12:00 AM72 °FPassing clouds.6 mph83%29.95 "Hg3 mi
11:30 PM
Aug 20
72 °FPassing clouds.6 mph78%29.98 "Hg3 mi
11:00 PM72 °FPassing clouds.10 mph83%29.98 "Hg3 mi
10:30 PM72 °FPassing clouds.No wind83%30.01 "Hg3 mi
10:00 PM73 °FPassing clouds.3 mph78%29.98 "Hg3 mi
9:30 PM73 °FPassing clouds.No wind78%30.01 "Hg3 mi
9:00 PM73 °FBroken clouds.No wind78%30.01 "HgN/A
8:30 PM77 °FBroken clouds.3 mph69%30.01 "HgN/A
8:00 PM77 °FBroken clouds.3 mph69%30.01 "HgN/A
7:30 PM81 °FBroken clouds.3 mph62%30.01 "HgN/A
7:00 PM81 °FSunny.6 mph62%30.01 "Hg10 mi
6:30 PM82 °FSunny.6 mph58%30.01 "Hg10 mi
6:00 PM81 °FSunny.3 mph62%30.04 "Hg10 mi
5:30 PM81 °FSunny.6 mph58%30.04 "Hg10 mi
5:00 PM81 °FBroken clouds.8 mph58%30.04 "HgN/A
4:30 PM79 °FBroken clouds.8 mph61%30.04 "HgN/A
4:00 PM81 °FBroken clouds.10 mph54%30.07 "HgN/A
3:30 PM81 °FPartly sunny.13 mph54%30.07 "HgN/A
3:00 PM79 °FPartly sunny.13 mph58%30.07 "HgN/A
2:30 PM79 °FBroken clouds.13 mph58%30.07 "HgN/A
2:00 PM77 °FBroken clouds.15 mph61%30.09 "HgN/A
1:30 PM77 °FBroken clouds.17 mph61%30.09 "HgN/A
1:00 PM77 °FPartly sunny.15 mph57%30.09 "HgN/A
Weather by CustomWeather, © 2014

See weather overviewHow to use our weather pages